Weather History for MMLP - March, 2013

Change the Weather History Date:

Tuesday, March 26, 2013

  Actual Average Record
Temperature  
Mean Temperature 76 °F -  
Max Temperature 93 °F 84 °F 96 °F (2006)
Min Temperature 59 °F 57 °F 50 °F (2012)
Cooling Degree Days 11    
Growing Degree Days 26 (Base 50)    
Moisture  
Dew Point 46 °F    
Average Humidity 35    
Maximum Humidity 72    
Minimum Humidity 17    
Precipitation  
Precipitation 0.00 in - - ()
Sea Level Pressure  
Sea Level Pressure 29.93 in    
Wind  
Wind Speed 6 mph ()    
Max Wind Speed 14 mph    
Max Gust Speed -    
Visibility 11.2 miles    
Events      
Averages and records for this station are not official NWS values.
T = Trace of Precipitation, MM = Missing Value Source: Averaged Metar Reports

Daily Weather History Graph

Daily Weather History Graph

Search for Another Location

Airport or City:

Trip Planner

Search our weather history database for the weather conditions in past years. The results will help you decide how hot, cold, wet, or windy it might be!

Date:

Astronomy

Mar. 26, 2013 Rise Set
Actual Time 6:19 AM MST 6:35 PM MST
Civil Twilight 5:56 AM MST 6:57 PM MST
Nautical Twilight 5:29 AM MST 7:24 PM MST
Astronomical Twilight 5:03 AM MST 7:51 PM MST
Moon 6:13 PM MST (3/26) 5:36 AM MST (3/26)
Length of Visible Light 13h 01m
Length of Day
12h 16m
Full, 100% of the Moon is Illuminated
Mar 26
Full
Mar 27
Full
Apr 2
Last Quarter
Apr 10
New
Apr 18
First Quarter

Hourly Weather History & Observations

Time (MST) Temp. Dew Point Humidity Pressure Visibility Wind Dir Wind Speed Gust Speed Precip Events Conditions
1:50 AM 67 °F 52 °F 48% 29.91 in 2 mi SSE 6.7 mph - -   Scattered Clouds
4:50 AM 62 °F 51 °F 58% 29.88 in 2 mi SSE 6.7 mph - -  
5:55 AM 55.4 °F 46.4 °F 72% 29.91 in 10.0 mi South 5.8 mph - N/A   Clear
6:41 AM 53.6 °F 44.6 °F 72% 29.92 in 12.0 mi SSW 9.2 mph - N/A   Clear
7:40 AM 62.6 °F 44.6 °F 52% 29.99 in 12.0 mi South 9.2 mph - N/A   Clear
7:50 AM 66 °F 46 °F 38% 29.93 in 16 mi South 4.5 mph - -  
8:45 AM 73.4 °F 41.0 °F 31% 29.96 in 12.0 mi South 5.8 mph - N/A   Clear
9:40 AM 78.8 °F 37.4 °F 23% 29.96 in 12.0 mi Calm Calm - N/A   Clear
10:40 AM 82.4 °F 39.2 °F 21% 30.00 in 12.0 mi NW 4.6 mph - N/A   Clear
10:50 AM 86 °F 47 °F 17% 29.95 in 19 mi NW 4.5 mph - -  
11:45 AM 82.4 °F 41.0 °F 23% 29.94 in 12.0 mi North 9.2 mph - N/A   Clear
12:40 PM 84.2 °F 39.2 °F 20% 29.91 in 15.0 mi North 9.2 mph - N/A   Clear
1:44 PM 84.2 °F 41.0 °F 22% 29.95 in 15.0 mi North 13.8 mph - N/A   Clear
1:50 PM 88 °F 51 °F 19% 29.90 in 19 mi NW 6.7 mph - -  
2:43 PM 86.0 °F 42.8 °F 22% 29.88 in 10.0 mi North 9.2 mph - N/A   Clear
3:40 PM 82.4 °F 50.0 °F 32% 29.87 in 10.0 mi NNW 9.2 mph - N/A   Clear
4:45 PM 91 °F 53 °F 18% 29.85 in 19 mi WNW 4.5 mph - -  
4:48 PM 82.4 °F 51.8 °F 35% 29.99 in 10.0 mi NW 9.2 mph - N/A   Clear
5:45 PM 82.4 °F 50.0 °F 32% 29.87 in 10.0 mi Calm Calm - N/A   Clear
6:41 PM 78.8 °F 41.0 °F 26% 29.88 in 10.0 mi SW 11.5 mph - N/A   Clear
7:45 PM 78 °F 52 °F 29% 29.87 in 2 mi South 4.5 mph - -  
7:45 PM 73.4 °F 44.6 °F 36% 30.01 in 10.0 mi Calm Calm - N/A   Clear
8:53 PM 69.8 °F 48.2 °F 46% 29.93 in 10.0 mi South 9.2 mph - N/A   Clear
9:58 PM 68.0 °F 44.6 °F 43% 29.95 in 10.0 mi SSE 11.5 mph - N/A   Clear
10:40 PM 66.2 °F 48.2 °F 52% 30.06 in 10.0 mi SSE 6.9 mph - N/A   Clear